This is the latest recevied weather packets stored in our database for station/object IU5JAE-13. If no packets are shown the sender has not sent any weather packets the latest 10 day(s).
| Time | Temp. | Humidity | Pressure | Rain* | Wind** | Luminosity | Snow |
|---|---|---|---|---|---|---|---|
| 1777625718 | 17.22° C | 39% | 1024.8 hPa | 0 mm | - | 543 W/m² | - |
| 1777625116 | 16.11° C | 40% | 1024.8 hPa | 0 mm | - | 526 W/m² | - |
| 1777624533 | 16.11° C | 39% | 1024.7 hPa | 0 mm | - | 506 W/m² | - |
| 1777623931 | 16.11° C | 41% | 1024.7 hPa | 0 mm | - | 486 W/m² | - |
| 1777623329 | 16.67° C | 40% | 1024.5 hPa | 0 mm | - | 472 W/m² | - |
| 1777622726 | 16.11° C | 43% | 1024.5 hPa | 0 mm | - | 464 W/m² | - |
| 1777622124 | 16.11° C | 42% | 1024.3 hPa | 0 mm | - | 452 W/m² | - |
| 1777621521 | 16.11° C | 44% | 1024.2 hPa | 0 mm | - | 436 W/m² | - |
| 1777620919 | 15° C | 43% | 1024.2 hPa | 0 mm | - | 402 W/m² | - |
| 1777620317 | 15° C | 45% | 1024.1 hPa | 0 mm | - | 371 W/m² | - |
| 1777619734 | 15° C | 44% | 1024.1 hPa | 0 mm | - | 342 W/m² | - |
| 1777619132 | 14.44° C | 46% | 1024 hPa | 0 mm | - | 306 W/m² | - |
| 1777618529 | 14.44° C | 46% | 1024 hPa | 0 mm | - | 274 W/m² | - |
| 1777617927 | 14.44° C | 46% | 1023.9 hPa | 0 mm | - | 238 W/m² | - |
| 1777617325 | 14.44° C | 46% | 1023.8 hPa | 0 mm | - | 204 W/m² | - |
| 1777616722 | 13.89° C | 44% | 1023.7 hPa | 0 mm | - | 175 W/m² | - |
| 1777616120 | 13.33° C | 45% | 1023.6 hPa | 0 mm | - | 146 W/m² | - |
| 1777615518 | 13.33° C | 43% | 1023.5 hPa | 0 mm | - | 123 W/m² | - |
| 1777614935 | 12.78° C | 42% | 1023.5 hPa | 0 mm | - | 95 W/m² | - |
| 1777614333 | 12.78° C | 42% | 1023.5 hPa | 0 mm | - | 78 W/m² | - |
| 1777613730 | 12.22° C | 42% | 1023.5 hPa | 0 mm | - | 65 W/m² | - |
| 1777613128 | 12.22° C | 42% | 1023.5 hPa | 0 mm | - | 54 W/m² | - |
| 1777612526 | 11.67° C | 43% | 1023.5 hPa | 0 mm | - | 44 W/m² | - |
| 1777611923 | 11.11° C | 43% | 1023.4 hPa | 0 mm | - | 34 W/m² | - |
| 1777611321 | 10.56° C | 43% | 1023.4 hPa | 0 mm | - | 26 W/m² | - |
* Rain latest hour (hover to see other rain measurements)
** Current wind speed in m/s (hover to see current wind gust speed)